Regional Weather Roundup
Issued by NWS

Home | Current Version | Previous Version | Text Only | Print | Product List | Glossary Off
Versions: 1 2 3 4 5 6 7 8 9 10 11 12 13 14 15 16 17 18 19 20 21 22 23 24 25 26 27 28 29 30 31 32 33 34 35 36 37 38 39 40 41 42 43 44 45 46 47 48 49 50

000
ASUS43 KMPX 202010
RWRMN
WEATHER ROUNDUP FOR MINNESOTA
NATIONAL WEATHER SERVICE TWIN CITIES/CHANHASSEN MN
300 PM CDT SUN APR 20 2014


NOTE: "FAIR" INDICATES FEW OR NO CLOUDS BELOW 12,000 FEET WITH NO
SIGNIFICANT WEATHER AND/OR OBSTRUCTIONS TO VISIBILITY. N/A MEANS
CURRENT SKY AND/OR WEATHER CONDITIONS ARE NOT AVAILABLE.

MNZ060>063-068>070-202100-
   Twin Cities Metro

CITY           SKY/WX    TMP DP  RH WIND       PRES   REMARKS
TWIN CITIES    MOSUNNY   73  37  27 VRB5      29.99S
ST PAUL        MOSUNNY   74  36  25 VRB7      29.98F
CRYSTAL        SUNNY     73  36  25 VRB5      29.97F
BLAINE         SUNNY     73  36  25 CALM      29.98F
EDEN PRAIRIE   SUNNY     74  36  25 NE9       29.97F
LAKEVILLE      SUNNY     70  54  56 SE7       29.99S
SOUTH ST PAUL  MOSUNNY   74  41  30 S5        29.98S
LAKE ELMO      PTSUNNY   72  41  33 CALM      29.99F
$$
MNZ001>005-007-008-013>017-022>024-027-028-202100-
   Northwest Minnesota

CITY           SKY/WX    TMP DP  RH WIND       PRES   REMARKS
BEMIDJI        SUNNY     68  31  24 W14       29.98F
HALLOCK          N/A     55  45  67 S7        29.97F
ROSEAU         SUNNY     55  41  58 CALM      29.99F
WARROAD        SUNNY     55  39  54 CALM      30.00F HAZE
THIEF RVR FALL MOSUNNY   63  37  39 SE8       29.98F
CROOKSTON      MOSUNNY   66  39  37 S8G16     29.97F
FOSSTON        SUNNY     70  34  26 S9        29.98F
DETROIT LAKES  SUNNY     68  32  26 SW3       30.00S
MOORHEAD       SUNNY     72  28  20 S9        29.97F
PARK RAPIDS    SUNNY     71  29  21 W10       29.98F
$$
MNZ006-009>011-018-025>026-202100-
   North Central Minnesota

CITY           SKY/WX    TMP DP  RH WIND       PRES   REMARKS
BAUDETTE       MOSUNNY   57  36  45 N5        30.00F
FLAG ISLAND    SUNNY     43  32  65 SE5       30.00F
INTL FALLS     MOSUNNY   59  34  39 NW6       30.00F
WASKISH        MOSUNNY   59  36  41 NW5       30.01S
BIG FORK       SUNNY     64  30  27 SW5       30.00F
LONGVILLE      SUNNY     70  28  21 SW3       30.00F
GRAND RAPIDS   SUNNY     64  30  27 SW6       30.01F
CRANE LAKE     SUNNY     61  36  39 N3        30.02F
ORR            SUNNY     63  28  27 NW3       29.99S
COOK           SUNNY     61  34  36 SW3       30.02S
$$
MNZ012-019>021-037-202100-
   Northeast Minnesota

CITY           SKY/WX    TMP DP  RH WIND       PRES   REMARKS
DULUTH         SUNNY     64  31  28 W7        30.00F
ELY            SUNNY     59  28  31 W7        30.02S
HIBBING        SUNNY     66  28  24 W10       30.01S
EVELETH        SUNNY     63  30  29 W7        30.02F
DULUTH HARBOR  SUNNY     45  37  76 CALM      30.01F
TWO HARBORS    SUNNY     61  39  44 S5        29.99S
SILVER BAY     SUNNY     55  41  58 S6        29.99S
GRAND MARAIS     N/A     43  35  73 W13       30.01F
G MARAIS ARPRT SUNNY     57  25  28 W12       30.01S
$$
MNZ029>031-032-039>041-046>048-054>057-064-202100-
   West Central Minnesota

CITY           SKY/WX    TMP DP  RH WIND       PRES   REMARKS
FERGUS FALLS   SUNNY     72  27  18 S9        29.93F
WHEATON        SUNNY     75  37  25 SE7       29.97F
MORRIS         SUNNY     73  34  23 S5        29.96F
ALEXANDRIA     SUNNY     69  34  27 VRB5      30.00F
ELBOW LAKE     FAIR      71  35  26 S7        29.97F
WADENA         SUNNY     70  34  26 S6        29.98F
GLENWOOD       SUNNY     72  32  23 E6        30.00F
APPLETON       SUNNY     75  32  20 SE7       29.97F
BENSON         SUNNY     72  36  26 SW6       29.98F
ORTONVILLE     SUNNY     73  32  21 SE9       29.96F
MADISON        SUNNY     75  34  22 E9        29.97F
WILLMAR        FAIR      72  34  25 S3        29.99F
$$
MNZ033>034-036-042>043-049>051-058-059-202100-
   Central Minnesota

CITY           SKY/WX    TMP DP  RH WIND       PRES   REMARKS
ST CLOUD       SUNNY     72  32  23 VRB3      29.99F
SAUK CENTRE    FAIR      69  35  28 CALM      29.99F
PAYNESVILLE    SUNNY     69  31  24 CALM      29.99F
AITKIN         SUNNY     72  21  15 NW3       29.99F
PINE RIVER     SUNNY     68  37  32 S3        30.02F
BRAINERD       SUNNY     73  27  18 VRB3      29.99F
STAPLES        SUNNY     70  27  19 CALM      29.98F
LONG PRAIRIE   FAIR      68  34  28 SE8       30.00F
LITTLE FALLS   SUNNY     70  28  21 CALM      29.99F
LITCHFIELD     SUNNY     72  34  25 SE3       29.99F
BUFFALO        SUNNY     71  30  22 CALM      29.99F
MAPLE LAKE     SUNNY     72  38  29 CALM      30.00F
$$
MNZ037-044-045-052-053-202100-
   East Central Minnesota

CITY           SKY/WX    TMP DP  RH WIND       PRES   REMARKS
PRINCETON      SUNNY     72  36  26 CALM      29.99F
MORA           SUNNY     68  34  28 CALM      30.01F
CAMBRIDGE      SUNNY     72  46  40 NE3       29.98F
RUSH CITY      SUNNY     66  34  30 CALM      30.01F
MOOSE LAKE     SUNNY     68  34  28 CALM      29.99S
HINCKLEY       FAIR      66  37  34 CALM      30.00F
CLOQUET        SUNNY     66  25  20 W8        30.00F
MCGREGOR       SUNNY     68  32  26 CALM      30.00F
$$
MNZ071>073-080-081-089-090-097-098-202100-
   Southwest Minnesota

CITY           SKY/WX    TMP DP  RH WIND       PRES   REMARKS
MONTEVIDEO     SUNNY     75  36  23 SE8       29.98F
GRANITE FALLS  SUNNY     73  33  23 E8        29.98F
CANBY          SUNNY     73  35  25 E7        29.98F
MARSHALL       SUNNY     73  36  25 E9G18     29.96F
REDWOOD FALLS  SUNNY     75  32  20 MISG      29.96F
OLIVIA         SUNNY     72  37  28 SE6       29.97F
PIPESTONE      SUNNY     75  36  23 SE10G17   29.96F
WINDOM         SUNNY     73  48  40 NE7       29.97F
WORTHINGTON    SUNNY     73  45  35 E9        29.98F
JACKSON        SUNNY     75  45  33 E6        29.97F
TRACY          SUNNY     75  33  21 E9G18     29.97F
SLAYTON        SUNNY     75  33  21 E12G17    29.97F
$$
MNZ065>067-074>077-082>085-091>093-202100-
   South Central Minnesota

CITY           SKY/WX    TMP DP  RH WIND       PRES   REMARKS
MANKATO        MOSUNNY   70  52  52 SE9       29.99S
NEW ULM        SUNNY     72  46  40 SE6       29.97F
ST JAMES       SUNNY     73  48  40 CALM      29.98F
FAIRMONT       SUNNY     73  50  43 CALM      29.98F
GLENCOE        SUNNY     74  27  17 SE7       29.97F
FARIBAULT      MOSUNNY   72  48  43 CALM      30.00F
OWATONNA       SUNNY     66  54  63 S3        30.00F
WASECA         MOSUNNY   70  55  60 S3        30.01F
ALBERT LEA     MOSUNNY   66  55  68 S8        30.00F
$$
MNZ078>079-086>088-094>096-202100-
   Southeast Minnesota

CITY           SKY/WX    TMP DP  RH WIND       PRES   REMARKS
ROCHESTER      CLOUDY    63  56  78 SW13      30.03F
RED WING       MOSUNNY   70  52  52 S3        29.99S
STANTON        SUNNY     70  51  51 S5        29.99S
DODGE CENTER   MOSUNNY   64  55  72 S9        30.02S
WINONA           N/A    N/A N/A N/A MISG        N/A
AUSTIN         PTSUNNY   66  57  72 SW9       30.01F
PRESTON        CLOUDY    61  56  84 S10G16    30.04S
$$
ABBREVIATIONS USED IN REMARKS
   TC - TEMPERATURES IN CELSIUS
  WCI - WIND CHILL INDEX
   HX - HEAT INDEX
  VSB - VISIBILITY
$$


USA.gov is the U.S. government's official web portal to all federal, state and local government web resources and services.